QPF
0.00 0.00 0.00 0.00 0.00 0.00 0.00 0.00 0.00 0.00 0.00 0.00 0.00 0.00 0.00 0.00 0.00 0.00 0.00 0.00 0.00 0.00 0.00 0.00 0.00 0.00 0.00 0.00 0.00 0.00 0.00 0.00 0.00 0.01 0.00 0.00 0.00 0.00 0.00 0.00 0.00 0.00 0.00 0.00
0.00 0.00 0.00 0.00 0.00 0.00 0.00 0.00 0.00 0.00 0.00 0.00 0.00 0.00 0.00 0.00 0.00 0.00 0.00 0.00 0.00 0.00 0.00 0.00 0.00 0.00 0.00 0.00 0.00 0.00 0.00 0.00 0.00 0.00 0.00 0.00 0.00 0.00 0.00 0.00 0.00 0.00 0.00 0.00
0.00 0.00 0.00 0.00 0.00 0.00 0.00 0.00 0.00 0.00 0.00 0.00 0.00 0.00 0.00 0.00 0.00 0.00 0.00 0.00 0.00 0.00 0.00 0.00 0.00 0.00 0.00 0.00 0.00 0.00 0.00 0.00 0.00 0.00 0.01 0.02 0.01 0.00 0.03 0.00 0.00 0.00 0.00 0.00
0.00 0.00 0.00 0.00 0.00 0.00 0.00 0.00 0.00 0.00 0.00 0.00 0.00 0.00 0.00 0.00 0.00 0.00 0.00 0.00 0.00 0.00 0.00 0.00 0.00 0.00 0.00 0.00 0.00 0.00 0.00 0.00 0.00 0.00 0.00 0.00 0.03 0.02 0.00 0.00 0.00 0.00 0.00 0.00
0.00 0.00 0.00 0.00 0.00 0.00 0.00 0.00 0.00 0.00 0.00 0.00 0.00 0.00 0.00 0.00 0.00 0.00 0.00 0.00 0.00 0.00 0.00 0.00 0.00 0.00 0.00 0.00 0.00 0.00 0.00 0.00 0.00 0.00 0.00 0.00 0.00 0.00 0.00 0.00 0.00 0.00 0.00 0.00
0.00 0.00 0.00 0.00 0.00 0.00 0.00 0.00 0.00 0.00 0.00 0.00 0.00 0.00 0.00 0.00 0.00 0.00 0.00 0.00 0.00 0.00 0.00 0.00 0.00 0.00 0.00 0.00 0.00 0.00 0.00 0.00 0.00 0.00 0.00 0.00 0.00 0.00 0.00 0.01 0.02 0.00 0.00 0.00
0.00 0.00 0.00 0.00 0.00 0.00 0.00 0.00 0.00 0.00 0.00 0.00 0.00 0.00 0.00 0.00 0.00 0.00 0.00 0.00 0.00 0.00 0.00 0.00 0.00 0.00 0.00 0.00 0.00 0.00 0.00 0.00 0.00 0.00 0.00 0.00 0.00 0.00 0.00 0.02 0.02 0.01 0.00 0.00
0.00 0.00 0.00 0.00 0.00 0.00 0.00 0.00 0.00 0.00 0.00 0.00 0.00 0.00 0.00 0.00 0.00 0.00 0.00 0.00 0.00 0.00 0.00 0.00 0.00 0.00 0.00 0.00 0.00 0.00 0.00 0.00 0.00 0.00 0.00 0.00 0.00 0.00 0.00 0.00 0.00 0.01 0.00 0.00
0.00 0.00 0.00 0.00 0.00 0.00 0.00 0.00 0.00 0.00 0.00 0.00 0.00 0.00 0.00 0.00 0.00 0.00 0.00 0.00 0.00 0.00 0.00 0.00 0.00 0.00 0.00 0.00 0.00 0.00 0.00 0.00 0.00 0.00 0.00 0.00 0.00 0.00 0.00 0.00 0.00 0.00 0.00 0.00
0.00 0.00 0.00 0.00 0.00 0.00 0.00 0.00 0.00 0.00 0.00 0.00 0.00 0.00 0.00 0.00 0.00 0.00 0.00 0.00 0.00 0.00 0.00 0.00 0.00 0.00 0.00 0.00 0.00 0.00 0.00 0.00 0.00 0.00 0.00 0.00 0.00 0.00 0.00 0.00 0.00 0.02 0.01 0.00
0.00 0.00 0.00 0.00 0.00 0.00 0.00 0.00 0.00 0.00 0.00 0.02 0.02 0.00 0.00 0.00 0.00 0.00 0.00 0.00 0.00 0.00 0.00 0.00 0.00 0.00 0.00 0.00 0.00 0.00 0.00 0.00 0.00 0.00 0.00 0.00 0.00 0.00 0.00 0.00 0.00 0.02 0.02 0.03
0.00 0.01 0.00 0.00 0.00 0.00 0.00 0.00 0.00 0.03 0.03 0.01 0.03 0.01 0.00 0.00 0.00 0.00 0.00 0.00 0.00 0.00 0.00 0.00 0.00 0.00 0.00 0.00 0.00 0.00 0.00 0.00 0.00 0.00 0.00 0.00 0.00 0.00 0.00 0.00 0.00 0.00 0.01 0.02
0.00 0.02 0.01 0.01 0.01 0.01 0.00 0.00 0.00 0.00 0.02 0.02 0.02 0.01 0.00 0.00 0.00 0.00 0.00 0.00 0.00 0.00 0.00 0.00 0.00 0.00 0.00 0.00 0.00 0.00 0.00 0.00 0.00 0.00 0.00 0.00 0.00 0.00 0.00 0.00 0.00 0.02 0.03 0.03
0.00 0.01 0.02 0.01 0.02 0.04 0.05 0.03 0.01 0.04 0.05 0.03 0.01 0.00 0.00 0.04 0.02 0.01 0.00 0.00 0.00 0.00 0.00 0.00 0.00 0.00 0.00 0.00 0.00 0.00 0.00 0.00 0.00 0.00 0.00 0.00 0.00 0.00 0.00 0.00 0.00 0.01 0.07 0.08
0.01 0.00 0.00 0.00 0.00 0.00 0.00 0.00 0.00 0.00 0.01 0.02 0.01 0.00 0.00 0.00 0.01 0.00 0.00 0.00 0.00 0.00 0.00 0.00 0.00 0.00 0.00 0.00 0.00 0.00 0.00 0.00 0.00 0.00 0.00 0.00 0.00 0.00 0.00 0.00 0.01 0.01 0.03 0.07
0.02 0.01 0.01 0.00 0.00 0.00 0.00 0.00 0.00 0.00 0.00 0.00 0.00 0.00 0.00 0.00 0.00 0.00 0.00 0.00 0.00 0.00 0.00 0.00 0.00 0.00 0.00 0.00 0.00 0.00 0.00 0.00 0.00 0.00 0.00 0.00 0.00 0.00 0.00 0.00 0.00 0.02 0.02 0.02
0.04 0.03 0.05 0.02 0.00 0.01 0.00 0.00 0.00 0.00 0.00 0.00 0.00 0.00 0.00 0.00 0.00 0.00 0.00 0.00 0.00 0.00 0.00 0.00 0.00 0.00 0.00 0.00 0.00 0.00 0.00 0.00 0.00 0.00 0.00 0.00 0.00 0.00 0.00 0.00 0.00 0.00 0.01 0.02
0.01 0.07 0.13 0.03 0.01 0.01 0.00 0.00 0.00 0.00 0.00 0.00 0.00 0.00 0.00 0.00 0.00 0.00 0.00 0.00 0.00 0.00 0.00 0.00 0.00 0.00 0.00 0.00 0.00 0.00 0.00 0.00 0.00 0.00 0.00 0.00 0.00 0.00 0.00 0.00 0.00 0.00 0.00 0.01
0.02 0.03 0.08 0.03 0.02 0.01 0.00 0.00 0.00 0.01 0.00 0.00 0.00 0.01 0.00 0.00 0.00 0.00 0.00 0.00 0.00 0.00 0.00 0.00 0.00 0.00 0.00 0.00 0.00 0.00 0.00 0.00 0.00 0.00 0.00 0.00 0.00 0.00 0.00 0.00 0.00 0.00 0.01 0.00
0.01 0.03 0.06 0.05 0.08 0.03 0.06 0.01 0.00 0.00 0.02 0.02 0.00 0.01 0.00 0.00 0.00 0.00 0.00 0.00 0.00 0.00 0.00 0.00 0.00 0.00 0.00 0.00 0.00 0.00 0.00 0.00 0.00 0.00 0.00 0.00 0.00 0.00 0.00 0.00 0.00 0.00 0.00 0.00
0.05 0.05 0.05 0.04 0.08 0.03 0.08 0.01 0.00 0.01 0.03 0.00 0.00 0.00 0.00 0.00 0.00 0.00 0.00 0.00 0.00 0.00 0.00 0.00 0.00 0.00 0.00 0.00 0.00 0.00 0.00 0.00 0.00 0.00 0.00 0.00 0.00 0.00 0.00 0.00 0.00 0.00 0.00 0.00
0.02 0.06 0.04 0.04 0.07 0.07 0.02 0.02 0.03 0.03 0.00 0.00 0.00 0.00 0.00 0.00 0.00 0.00 0.00 0.00 0.00 0.00 0.00 0.00 0.00 0.00 0.00 0.00 0.00 0.00 0.00 0.00 0.00 0.00 0.00 0.00 0.00 0.00 0.00 0.00 0.00 0.00 0.00 0.00
0.05 0.04 0.13 0.09 0.05 0.06 0.02 0.02 0.00 0.00 0.00 0.00 0.00 0.00 0.00 0.00 0.00 0.00 0.00 0.00 0.00 0.00 0.00 0.00 0.00 0.00 0.00 0.00 0.00 0.00 0.00 0.00 0.00 0.01 0.00 0.00 0.00 0.00 0.00 0.00 0.00 0.00 0.00 0.00
0.02 0.02 0.02 0.02 0.02 0.02 0.03 0.01 0.00 0.00 0.00 0.00 0.00 0.00 0.00 0.00 0.00 0.00 0.00 0.00 0.00 0.00 0.00 0.00 0.00 0.00 0.00 0.00 0.00 0.00 0.00 0.00 0.00 0.00 0.00 0.00 0.00 0.00 0.00 0.00 0.00 0.00 0.00 0.00
0.00 0.00 0.01 0.00 0.03 0.02 0.02 0.01 0.00 0.00 0.00 0.00 0.00 0.00 0.00 0.00 0.00 0.00 0.00 0.00 0.00 0.00 0.00 0.00 0.00 0.00 0.00 0.00 0.00 0.00 0.00 0.00 0.00 0.00 0.00 0.00 0.00 0.00 0.00 0.00 0.00 0.00 0.00 0.00
0.01 0.04 0.03 0.04 0.08 0.05 0.02 0.00 0.00 0.00 0.00 0.00 0.00 0.00 0.00 0.00 0.00 0.00 0.00 0.00 0.00 0.00 0.00 0.00 0.00 0.00 0.00 0.00 0.00 0.00 0.00 0.00 0.00 0.00 0.00 0.00 0.00 0.01 0.02 0.01 0.01 0.00 0.00 0.00
MSLP
1002.23 1001.74 1000.78 1000.11 999.86 999.48 998.56 997.76 997.50 996.80 996.83 996.93 997.74 998.25 997.98 998.12 998.22 998.79 999.24 999.58 999.82 999.88 1000.02 1000.30 1000.66 1001.13 1001.80 1002.49 1003.13 1003.56 1003.61 1003.85 1004.10 1004.57 1005.09 1005.49 1005.72 1005.97 1006.16 1006.24 1006.11 1006.34 1006.69 1007.27
1001.41 1000.83 1000.09 999.71 999.29 999.07 998.76 998.12 997.96 997.49 997.08 997.13 997.38 997.88 998.20 998.20 997.94 997.94 998.32 998.74 999.38 999.73 1000.02 1000.22 1000.65 1001.17 1001.82 1002.53 1003.13 1003.75 1003.95 1003.92 1004.21 1004.45 1004.62 1004.76 1005.12 1005.21 1005.35 1005.58 1005.78 1005.91 1006.18 1006.64
1000.53 999.46 999.40 999.35 998.88 998.74 998.89 998.83 998.76 998.49 998.01 997.82 998.10 997.95 998.09 997.88 997.56 997.52 997.70 998.24 998.63 999.18 999.51 999.97 1000.52 1000.97 1001.60 1002.26 1002.91 1003.38 1003.73 1004.00 1004.30 1004.39 1004.48 1004.67 1004.65 1004.73 1004.60 1004.58 1004.69 1004.96 1005.38 1005.81
1000.13 999.33 999.09 999.27 999.18 999.12 999.02 999.33 999.29 999.00 998.68 998.21 998.18 997.74 997.25 996.84 996.63 996.74 997.07 997.45 998.13 998.62 999.11 999.70 1000.16 1000.87 1001.52 1002.12 1002.79 1003.24 1003.60 1003.89 1004.28 1004.53 1004.57 1004.53 1004.73 1004.64 1004.09 1003.88 1003.63 1003.93 1004.25 1004.53
999.86 999.29 999.11 998.95 998.80 999.20 999.07 999.06 998.90 998.90 999.13 999.27 998.66 997.97 996.80 996.12 995.55 995.49 995.94 996.54 997.37 998.08 998.71 999.21 999.93 1000.57 1001.35 1002.20 1002.65 1003.05 1003.46 1003.78 1004.13 1004.47 1004.68 1004.75 1004.50 1004.34 1003.95 1003.55 1003.42 1003.16 1003.09 1003.20
1000.33 999.53 999.23 998.84 998.87 998.88 999.20 999.31 999.46 999.61 999.84 999.18 998.89 998.18 996.67 995.72 994.95 994.68 994.96 995.74 996.84 997.75 998.36 999.10 1000.05 1000.94 1001.70 1002.24 1002.74 1003.28 1003.70 1004.04 1004.17 1004.44 1004.58 1004.73 1004.71 1004.54 1004.25 1003.92 1003.81 1003.12 1002.66 1002.38
1000.90 999.96 999.71 999.60 999.63 999.12 999.44 999.88 999.97 1000.07 999.83 998.80 998.32 997.27 995.87 994.89 994.29 994.06 994.54 995.73 996.82 997.95 998.88 999.69 1000.32 1001.09 1001.87 1002.50 1003.05 1003.62 1003.97 1004.21 1004.20 1004.34 1004.43 1004.43 1004.42 1004.33 1004.19 1004.03 1003.71 1003.45 1002.82 1001.83
1001.40 1000.32 999.52 999.54 999.80 999.89 999.71 1000.06 1000.23 999.91 999.36 998.10 997.05 996.06 995.58 995.00 994.63 994.88 995.41 996.46 997.67 998.66 999.51 1000.33 1000.97 1001.68 1002.16 1002.70 1003.19 1003.68 1004.20 1004.51 1004.56 1004.46 1004.30 1004.25 1004.18 1004.04 1003.79 1003.50 1003.30 1003.03 1002.62 1001.78
1001.28 1000.56 1000.15 1000.45 1000.18 1000.05 1000.25 1000.22 1001.00 1001.13 1000.82 999.97 998.80 997.00 996.02 995.69 995.54 995.73 996.22 997.11 998.11 999.26 1000.21 1001.01 1001.47 1001.87 1002.41 1002.93 1003.26 1003.63 1003.92 1003.99 1004.07 1004.28 1004.16 1004.05 1004.01 1003.76 1003.55 1003.30 1003.01 1002.73 1002.28 1001.48
1002.10 1001.65 1001.32 1001.10 1000.85 1000.25 1000.14 1000.62 1001.60 1002.30 1002.17 1001.00 999.69 998.14 997.06 997.12 997.39 997.81 997.47 997.93 998.91 999.72 1000.55 1001.34 1001.88 1002.30 1002.71 1002.86 1003.02 1003.32 1003.60 1003.70 1003.82 1003.88 1003.80 1003.68 1003.50 1003.58 1003.40 1003.38 1002.82 1002.27 1001.88 1001.42
1003.60 1003.56 1003.09 1002.71 1001.85 1001.34 1000.98 1001.14 1001.85 1002.88 1003.00 1002.73 1001.15 999.77 999.75 999.66 999.59 999.29 999.46 999.50 999.97 1000.70 1001.28 1001.71 1002.20 1002.62 1002.87 1002.78 1002.62 1002.85 1003.36 1003.81 1003.92 1004.10 1004.01 1004.35 1003.55 1003.60 1003.67 1003.49 1003.21 1002.74 1002.18 1001.39
1004.68 1004.60 1003.89 1003.07 1002.40 1001.95 1002.31 1002.15 1002.60 1003.42 1003.43 1002.83 1002.55 1001.11 1000.98 1001.18 1001.35 1001.31 1001.81 1001.44 1001.51 1001.94 1001.88 1002.04 1002.31 1002.51 1002.83 1002.85 1002.92 1003.08 1003.47 1004.03 1004.08 1004.02 1004.05 1004.11 1003.70 1003.65 1003.88 1003.64 1003.05 1002.63 1002.28 1001.88
1006.43 1006.15 1005.23 1003.65 1002.65 1002.26 1002.43 1003.03 1002.87 1003.27 1003.79 1002.97 1003.14 1001.89 1002.01 1002.48 1003.00 1003.16 1002.88 1002.43 1002.13 1001.96 1001.92 1002.07 1002.31 1002.66 1003.00 1003.42 1003.80 1003.83 1003.87 1003.70 1003.83 1004.00 1004.10 1004.00 1003.82 1004.05 1003.97 1003.77 1003.29 1002.65 1002.34 1002.04
1008.05 1007.31 1006.74 1005.55 1004.15 1004.23 1004.54 1005.14 1005.11 1005.22 1004.46 1003.78 1002.43 1001.96 1001.83 1003.13 1004.10 1003.73 1003.89 1003.60 1002.67 1002.51 1002.07 1002.20 1002.58 1002.99 1003.28 1003.63 1003.70 1003.84 1003.86 1003.81 1003.85 1003.95 1004.08 1004.08 1003.99 1003.80 1003.72 1003.63 1003.45 1002.96 1002.16 1001.76
1008.83 1008.19 1007.55 1006.54 1005.64 1004.80 1004.05 1003.69 1003.99 1003.87 1003.72 1003.49 1002.73 1002.09 1002.01 1002.18 1003.22 1003.65 1003.04 1002.67 1002.44 1002.24 1002.17 1002.46 1002.97 1003.06 1002.96 1003.01 1003.43 1003.82 1003.93 1003.93 1003.94 1003.81 1003.89 1003.93 1003.81 1003.64 1003.26 1003.22 1003.10 1002.91 1002.47 1001.64
1009.66 1009.15 1008.28 1006.86 1005.86 1004.82 1003.58 1003.06 1002.79 1002.51 1002.31 1002.03 1001.95 1001.38 1001.70 1001.74 1001.93 1002.54 1002.43 1002.39 1002.36 1002.43 1002.60 1002.45 1002.37 1002.36 1002.46 1002.61 1003.03 1003.35 1003.72 1003.80 1003.63 1003.56 1003.45 1003.48 1003.47 1003.31 1002.98 1002.59 1002.36 1002.35 1002.20 1001.90
1010.51 1010.37 1009.38 1007.34 1005.80 1004.91 1003.24 1002.21 1001.78 1001.50 1001.25 1001.45 1001.45 1001.49 1001.49 1002.34 1002.54 1002.71 1002.51 1002.40 1001.98 1001.79 1001.79 1001.85 1001.99 1002.25 1002.42 1002.60 1002.84 1003.10 1003.22 1003.40 1003.42 1003.26 1003.20 1003.08 1002.94 1002.76 1002.38 1002.03 1001.59 1001.62 1001.79 1001.70
1010.50 1010.94 1010.49 1008.20 1006.39 1004.54 1002.39 1001.48 1001.33 1001.45 1001.43 1001.53 1001.95 1001.84 1002.27 1002.44 1002.41 1002.36 1002.31 1002.09 1001.96 1002.00 1002.16 1002.31 1002.42 1002.52 1002.58 1002.51 1002.51 1002.71 1002.95 1003.06 1003.12 1003.08 1003.06 1002.99 1002.64 1002.14 1001.81 1001.39 1001.21 1001.05 1001.09 1001.20
1010.55 1011.11 1010.44 1008.45 1006.49 1004.53 1002.99 1002.22 1002.41 1003.09 1002.40 1002.67 1002.81 1003.38 1003.91 1002.79 1002.56 1002.29 1002.20 1002.27 1002.42 1002.58 1002.53 1002.54 1002.62 1002.55 1002.41 1002.30 1002.12 1002.06 1002.22 1002.54 1002.61 1002.71 1002.80 1002.71 1002.53 1002.33 1002.19 1001.87 1000.51 1000.47 1000.33 1000.49
1009.79 1010.66 1010.53 1008.97 1007.40 1005.23 1003.90 1003.48 1003.25 1003.05 1003.05 1003.82 1003.80 1003.62 1003.73 1003.38 1002.89 1002.21 1002.36 1002.82 1002.84 1002.76 1002.59 1002.62 1002.72 1002.61 1002.23 1001.89 1001.89 1001.94 1001.83 1001.87 1001.99 1002.08 1002.23 1002.42 1002.36 1002.26 1001.94 1001.71 1001.69 1000.59 1000.04 999.97
1009.05 1009.54 1009.40 1008.97 1007.86 1005.86 1004.48 1004.26 1003.71 1003.85 1004.89 1004.60 1004.29 1004.05 1003.98 1003.91 1003.80 1003.38 1003.14 1002.90 1002.76 1002.62 1002.46 1002.42 1002.19 1001.68 1001.25 1001.03 1001.03 1001.08 1001.27 1001.40 1001.60 1001.73 1001.64 1001.61 1001.56 1001.51 1001.50 1001.25 1001.05 1001.07 1000.38 999.70
1008.34 1008.61 1008.28 1008.02 1007.20 1006.00 1005.48 1004.49 1004.31 1004.80 1004.57 1004.40 1004.19 1004.29 1004.24 1004.18 1003.92 1003.60 1003.33 1003.02 1002.80 1002.51 1002.43 1002.32 1001.66 1001.16 1000.98 1000.92 1001.30 1001.27 1001.07 1001.12 1001.23 1001.38 1001.15 1001.08 1000.86 1000.80 1000.65 1000.58 1000.44 1000.32 1000.15 999.91
1007.93 1007.90 1008.12 1008.32 1006.65 1006.14 1005.72 1005.48 1004.74 1004.61 1004.37 1004.22 1004.27 1004.34 1004.44 1004.33 1004.11 1003.85 1003.38 1003.00 1002.72 1002.65 1002.24 1001.64 1001.27 1001.28 1001.51 1001.70 1001.77 1001.34 1001.21 1001.25 1000.89 1000.53 1000.17 1000.17 1000.28 1000.08 999.96 999.89 999.82 999.57 999.48 999.28
1007.37 1007.31 1007.28 1006.82 1006.03 1005.81 1005.98 1005.89 1005.42 1004.96 1004.63 1004.56 1004.46 1004.44 1004.53 1004.47 1004.19 1003.77 1003.44 1003.21 1002.79 1002.13 1001.85 1002.15 1002.27 1002.23 1002.06 1001.98 1001.72 1001.56 1001.09 1000.84 1000.34 999.82 999.58 999.35 999.11 999.01 998.96 998.94 998.71 998.59 998.53 998.39
1006.21 1006.16 1005.84 1005.67 1005.21 1005.48 1005.99 1006.41 1006.16 1005.23 1004.96 1004.89 1004.90 1004.84 1004.78 1004.68 1004.30 1004.08 1003.57 1003.09 1002.84 1002.78 1003.21 1003.48 1003.27 1002.68 1002.01 1001.52 1001.26 1001.06 1000.65 1000.28 999.72 999.16 998.77 998.54 998.20 998.12 997.94 997.82 997.78 997.76 997.57 997.52
1006.29 1006.16 1006.31 1006.09 1006.28 1006.43 1006.08 1005.76 1005.48 1005.20 1005.20 1005.22 1005.11 1005.19 1005.13 1004.81 1004.24 1004.08 1004.03 1003.91 1004.25 1004.49 1004.48 1003.86 1003.52 1002.77 1001.91 1001.28 1000.83 1000.27 999.93 999.46 998.78 998.23 997.90 997.62 997.50 997.44 997.42 997.23 996.89 996.75 996.69 996.88
Thickness
5682 5674 5675 5695 5706 5713 5722 5732 5727 5747 5758 5748 5731 5729 5741 5753 5752 5745 5747 5750 5754 5758 5767 5772 5772 5773 5771 5768 5768 5767 5764 5769 5769 5763 5760 5757 5757 5759 5759 5762 5765 5763 5761 5758
5676 5669 5697 5709 5712 5711 5713 5712 5713 5732 5747 5743 5734 5722 5735 5743 5748 5749 5747 5747 5748 5751 5754 5758 5761 5761 5759 5755 5755 5754 5755 5756 5757 5757 5756 5756 5754 5754 5756 5756 5755 5756 5755 5754
5671 5694 5707 5702 5705 5703 5700 5695 5699 5704 5725 5733 5721 5711 5719 5738 5747 5750 5750 5749 5748 5746 5746 5747 5747 5749 5750 5746 5744 5744 5743 5744 5743 5745 5745 5744 5746 5746 5746 5747 5751 5753 5751 5748
5679 5702 5698 5691 5687 5696 5680 5704 5702 5701 5700 5687 5720 5680 5715 5732 5735 5741 5743 5744 5742 5743 5744 5742 5738 5736 5734 5734 5734 5731 5731 5732 5733 5732 5731 5730 5726 5726 5738 5742 5747 5747 5748 5747
5675 5687 5686 5682 5691 5696 5686 5706 5705 5704 5690 5686 5693 5684 5709 5734 5731 5739 5742 5744 5741 5740 5737 5735 5730 5726 5723 5720 5723 5726 5721 5720 5720 5720 5720 5718 5719 5723 5729 5733 5733 5737 5740 5744
5672 5694 5690 5690 5696 5698 5701 5692 5691 5690 5681 5661 5683 5684 5696 5717 5733 5744 5749 5745 5737 5737 5735 5730 5720 5715 5711 5712 5711 5710 5709 5705 5706 5706 5706 5704 5704 5706 5708 5712 5713 5723 5728 5736
5659 5671 5684 5688 5674 5692 5687 5672 5650 5647 5652 5656 5698 5691 5707 5735 5747 5753 5746 5737 5731 5725 5718 5714 5709 5705 5704 5699 5695 5692 5690 5692 5697 5695 5693 5694 5694 5695 5696 5698 5701 5703 5711 5726
5630 5638 5676 5685 5671 5665 5671 5668 5650 5637 5656 5681 5717 5697 5709 5736 5745 5742 5739 5724 5716 5709 5705 5698 5696 5694 5691 5686 5684 5682 5677 5674 5678 5681 5681 5682 5682 5684 5687 5690 5692 5694 5699 5712
5635 5642 5673 5668 5672 5673 5659 5649 5668 5645 5654 5649 5672 5700 5721 5730 5725 5727 5723 5715 5702 5692 5687 5683 5685 5681 5675 5672 5670 5667 5665 5666 5664 5662 5666 5670 5671 5671 5673 5677 5680 5684 5690 5702
5644 5623 5652 5656 5663 5669 5662 5671 5633 5633 5610 5618 5654 5676 5686 5691 5687 5689 5697 5697 5683 5679 5676 5674 5671 5666 5664 5663 5659 5657 5655 5652 5651 5652 5655 5655 5657 5658 5660 5661 5666 5671 5676 5687
5629 5616 5619 5634 5633 5636 5647 5642 5644 5635 5629 5597 5617 5648 5664 5667 5669 5674 5676 5678 5669 5663 5658 5653 5653 5657 5654 5653 5650 5645 5642 5641 5638 5634 5633 5631 5637 5642 5638 5640 5642 5647 5654 5666
5614 5608 5601 5616 5637 5645 5637 5635 5636 5606 5610 5627 5620 5629 5656 5655 5653 5652 5644 5653 5651 5644 5642 5641 5642 5643 5642 5638 5637 5633 5627 5622 5622 5620 5618 5616 5619 5620 5617 5618 5624 5629 5633 5641
5590 5583 5579 5599 5624 5633 5622 5620 5630 5626 5617 5611 5598 5614 5639 5632 5625 5626 5629 5635 5636 5636 5632 5631 5631 5629 5630 5622 5616 5614 5612 5609 5607 5604 5602 5601 5599 5597 5597 5597 5602 5608 5613 5620
5568 5574 5569 5570 5595 5597 5582 5574 5583 5581 5576 5587 5608 5617 5630 5603 5599 5609 5606 5610 5620 5620 5621 5619 5618 5613 5609 5604 5603 5600 5597 5595 5592 5589 5585 5582 5581 5583 5583 5584 5586 5590 5597 5603
5556 5554 5564 5570 5578 5587 5592 5595 5592 5589 5592 5579 5600 5605 5612 5613 5592 5595 5605 5610 5610 5610 5611 5607 5600 5597 5597 5595 5590 5583 5580 5579 5577 5576 5573 5571 5572 5571 5576 5574 5572 5574 5577 5586
5541 5539 5551 5558 5570 5577 5583 5593 5596 5600 5603 5602 5600 5602 5614 5613 5611 5601 5601 5601 5598 5596 5596 5595 5595 5593 5590 5584 5582 5577 5571 5567 5566 5564 5563 5562 5561 5561 5563 5567 5566 5562 5563 5567
5522 5523 5531 5544 5564 5562 5568 5589 5593 5598 5604 5598 5586 5596 5602 5587 5585 5585 5588 5589 5592 5592 5591 5591 5589 5583 5579 5575 5569 5564 5561 5557 5552 5552 5550 5549 5550 5550 5553 5556 5560 5558 5554 5557
5516 5513 5510 5534 5554 5548 5584 5599 5597 5589 5592 5592 5585 5588 5579 5580 5582 5583 5583 5586 5582 5578 5578 5575 5573 5570 5566 5563 5559 5554 5548 5544 5539 5535 5533 5532 5534 5538 5541 5546 5547 5550 5550 5549
5512 5506 5513 5531 5547 5563 5575 5580 5572 5554 5570 5573 5568 5564 5559 5570 5573 5576 5577 5572 5569 5569 5568 5566 5563 5560 5557 5552 5548 5543 5537 5529 5523 5517 5513 5512 5514 5516 5519 5524 5538 5541 5544 5545
5520 5508 5508 5525 5529 5542 5558 5564 5570 5571 5558 5558 5557 5557 5553 5557 5552 5566 5567 5562 5559 5559 5558 5555 5551 5548 5545 5542 5533 5522 5518 5513 5506 5500 5497 5495 5498 5499 5503 5507 5509 5524 5532 5537
5517 5510 5512 5513 5518 5539 5556 5555 5563 5543 5538 5543 5548 5549 5548 5543 5545 5552 5555 5554 5553 5551 5550 5548 5545 5544 5540 5535 5526 5516 5506 5497 5490 5486 5487 5487 5491 5492 5492 5496 5500 5503 5513 5523
5521 5520 5525 5527 5526 5531 5543 5551 5542 5537 5541 5541 5543 5541 5539 5539 5541 5542 5543 5544 5544 5544 5542 5540 5538 5537 5533 5525 5510 5500 5495 5488 5480 5476 5478 5480 5484 5487 5488 5489 5493 5495 5499 5504
5518 5522 5512 5509 5528 5533 5536 5534 5542 5541 5538 5537 5537 5535 5531 5530 5530 5532 5534 5537 5536 5532 5533 5536 5533 5528 5520 5510 5500 5494 5487 5479 5477 5476 5477 5478 5478 5481 5483 5483 5487 5491 5493 5496
5518 5522 5516 5522 5531 5530 5524 5523 5527 5529 5532 5530 5528 5527 5524 5521 5524 5526 5528 5526 5526 5529 5527 5521 5515 5510 5506 5502 5497 5486 5482 5478 5478 5478 5477 5478 5480 5480 5481 5480 5482 5483 5485 5488
5525 5525 5527 5528 5534 5530 5520 5512 5508 5520 5520 5518 5518 5517 5516 5514 5517 5516 5519 5521 5518 5515 5507 5499 5497 5498 5500 5500 5493 5486 5483 5479 5481 5482 5482 5480 5481 5479 5478 5478 5478 5478 5480 5480
5515 5512 5508 5509 5511 5506 5508 5511 5514 5513 5510 5510 5510 5507 5507 5508 5511 5511 5509 5506 5498 5491 5487 5490 5488 5490 5494 5493 5489 5489 5486 5484 5486 5485 5481 5480 5476 5473 5469 5469 5471 5470 5469 5467